CYAW

Shearwater  Airport

Shearwater, Canada
Issued Wind Visibility Ceiling Temperature Dew Point Humidity Barometer
Nov-22
23:53 UTC
150°
21 KTS
Gust 28 KTS
10 miles Overcast
3,300' AGL
12° C
54° F
12° C
54° F
100% 29.78" Hg
1008.7 hPa
VFR
Nov-22
23:00 UTC
140°
18 KTS
12 miles Overcast
3,800' AGL
13° C
55° F
11° C
52° F
88% 29.83" Hg
1010.4 hPa
VFR
Nov-22
22:00 UTC
140°
13 KTS
Gust 19 KTS
12 miles Broken
8,000' AGL
12° C
54° F
11° C
52° F
94% 29.88" Hg
1012.1 hPa
VFR
Nov-22
21:00 UTC
150°
9 KTS
12 miles Broken
8,500' AGL
12° C
54° F
11° C
52° F
94% 29.92" Hg
1013.5 hPa
VFR
Nov-22
20:50 UTC
140°
9 KTS
12 miles Overcast
8,600' AGL
12° C
54° F
11° C
52° F
94% 29.93" Hg
1013.7 hPa
VFR
Nov-22
20:33 UTC
140°
9 KTS
12 miles Overcast
5,300' AGL
12° C
54° F
11° C
52° F
94% 29.95" Hg
1014.5 hPa
VFR
Nov-22
20:00 UTC
160°
9 KTS
12 miles Broken
8,000' AGL
12° C
54° F
11° C
52° F
94% 29.97" Hg
1015.1 hPa
VFR
Nov-22
19:00 UTC
180°
8 KTS
15 miles Overcast
23,000' AGL
12° C
54° F
11° C
52° F
94% 30" Hg
1016.2 hPa
VFR
Nov-22
18:00 UTC
180°
7 KTS
12 miles Broken
25,000' AGL
13° C
55° F
11° C
52° F
88% 30.02" Hg
1016.7 hPa
VFR
Nov-22
17:00 UTC
180°
7 KTS
12 miles Broken
25,000' AGL
16° C
61° F
11° C
52° F
72% 30.03" Hg
1017.2 hPa
VFR
Nov-22
16:00 UTC
210°
8 KTS
12 miles Broken
25,000' AGL
16° C
61° F
11° C
52° F
72% 30.06" Hg
1018.1 hPa
VFR
Nov-22
15:00 UTC
230°
5 KTS
12 miles Overcast
25,000' AGL
14° C
57° F
10° C
50° F
77% 30.1" Hg
1019.3 hPa
VFR
Nov-22
14:00 UTC
230°
9 KTS
12 miles Overcast
25,000' AGL
13° C
55° F
10° C
50° F
82% 30.11" Hg
1019.6 hPa
VFR
Nov-22
13:00 UTC
210°
8 KTS
12 miles Overcast
25,000' AGL
12° C
54° F
10° C
50° F
88% 30.11" Hg
1019.6 hPa
VFR